Regional Weather Roundup
Issued by NWS

Home | Current Version | Previous Version | Graphics & Text | Print | Product List | Glossary On
Versions: 1 2 3 4 5 6 7 8 9 10 11 12 13 14 15 16 17 18 19 20 21 22 23 24 25 26 27 28 29 30 31 32 33 34 35 36 37 38 39 40 41 42 43 44 45 46 47 48 49 50
000
ASUS43 KIND 281259
RWRIN

WEATHER ROUNDUP FOR INDIANA
NATIONAL WEATHER SERVICE INDIANAPOLIS IN
900 AM EDT FRI JUL 28 2017

NOTE: "FAIR" INDICATES FEW OR NO CLOUDS BELOW 12,000 FEET WITH NO
SIGNIFICANT WEATHER AND/OR OBSTRUCTIONS TO VISIBILITY.

* - STATION DOES NOT REPORT WEATHER SUCH AS PRECIPITATION OR FOG.

+ - STATION NOT QUALITY CONTROLLED BY THE NATIONAL WEATHER SERVICE.
    USE DATA WITH CAUTION...ESPECIALLY DEWPOINT AND RELATIVE
    HUMIDITY OBSERVATIONS.

INZ001>003-010>013-019-020-281400-
NORTHWEST INDIANA

CITY           SKY/WX    TMP DP  RH WIND       PRES   REMARKS
GARY /AIRPORT/ PTSUNNY   73  66  78 NE10      29.97R
MICHIGAN CITY+ MOSUNNY   68  64  88 N3        29.97R
MONTICELLO +   CLOUDY    69  66  90 NE9       29.92R
RENSSELAER +   CLOUDY    70  63  78 NE9       29.94R

$$

LMZ046-743>745-281400-
SOUTHERN LAKE MICHIGAN

STATION/POSITION TIME  TEMP    WIND        PRES    WAVE
                       AIR SEA DIR/SP/G            HT
                 (UTC) (F)     (DEG/KT/KT) (MB)    (FT)
BURNS HARBOR     1240   70      40/  9/ 11 1014.9R
MICHIGAN CITY    1230   69      10/  9/ 10   N/A
5NW MICH CITY    1250   70 73   50/ 10/ 14   N/A     4

$$

INZ004-005-014>016-021>024-281400-
NORTH CENTRAL INDIANA

CITY           SKY/WX    TMP DP  RH WIND       PRES   REMARKS
ELKHART        CLOUDY    66  61  82 NE7       29.96R
GOSHEN         CLOUDY    66  61  84 NE8       29.96R
SOUTH BEND     PTSUNNY   68  64  87 NE9       29.96R
WARSAW +       LGT RAIN  64  61  88 NE5       29.94R

$$

INZ006>009-017-018-025>027-281400-
NORTHEAST INDIANA

CITY           SKY/WX    TMP DP  RH WIND       PRES   REMARKS
AUBURN +       LGT RAIN  64  61  88 E5        29.95F
FORT WAYNE     PTSUNNY   68  61  78 N8        29.94R
KENDALLVILLE + CLOUDY    65  64  95 N3        29.96R

$$

INZ028-029-035-036-043>045-051>053-281400-
WEST CENTRAL INDIANA

CITY           SKY/WX    TMP DP  RH WIND       PRES   REMARKS
GREENCASTLE +  CLOUDY    70  70 100 N5        29.88R FOG
LAFAYETTE      PTSUNNY   72  68  87 E14       29.90R
TERRE HAUTE    CLOUDY    71  68  90 N6        29.87R FOG

$$

INZ030>032-037>040-046>048-054>057-064-065-281400-
CENTRAL INDIANA

CITY           SKY/WX    TMP DP  RH WIND       PRES   REMARKS
ANDERSON       PTSUNNY   73  72  94 MISG      29.91
COLUMBUS       CLOUDY    73  72  94 N6        29.85S
FRANKFORT +    CLOUDY    73  69  88 E8        29.93R
GREENWOOD *+   CLOUDY   N/A N/A N/A E8        29.87R
INDIANAPOLIS   CLOUDY    74  71  91 NE9       29.87R
-EAGLE CREEK   CLOUDY    74  70  87 NE6       29.87R
KOKOMO +       PTSUNNY   70  64  81 NE13      29.93R
MT COMFORT *+  CLOUDY    72  70  94 NE9       29.88R
SHELBYVILLE    CLOUDY    74  70  87 NE7       29.86R

$$

INZ033-034-041-042-049-050-058-059-281400-
EAST CENTRAL INDIANA

CITY           SKY/WX    TMP DP  RH WIND       PRES   REMARKS
MUNCIE         CLOUDY    71  66  84 E10       29.90R
RICHMOND +     CLOUDY    68  66  94 NE10      29.89R

$$

INZ060-061-067>069-081>083-085>088-281400-
SOUTHWEST INDIANA

CITY           SKY/WX    TMP DP  RH WIND       PRES   REMARKS
EVANSVILLE     CLOUDY    77  74  90 N6        29.83S
HUNTINGBURG *+ CLOUDY    76  74  93 NW6       29.83S

$$

INZ062-063-066-070>080-084-089>092-281400-
SOUTH CENTRAL AND SOUTHEAST INDIANA

CITY           SKY/WX    TMP DP  RH WIND       PRES   REMARKS
BLOOMINGTON    CLOUDY    76  71  85 NE8       29.85R
MADISON *+     CLOUDY    73  72  94 CALM      29.85S
SEYMOUR +      RAIN      75  75 100 NE5       29.83

$$




USA.gov is the U.S. government's official web portal to all federal, state and local government web resources and services.